Regional Weather Roundup
Issued by NWS Wakefield, VA

Home | Current Version | Previous Version | Text Only | Print | Product List | Glossary Off
Versions: 1 2 3 4 5 6 7 8 9 10 11 12 13 14 15 16 17 18 19 20 21 22 23 24 25 26 27 28 29 30 31 32 33 34 35 36 37 38 39 40 41 42 43 44 45 46 47 48 49 50

000
ASUS41 KAKQ 261110
RWRAKQ

REGIONAL WEATHER ROUNDUP
NATIONAL WEATHER SERVICE WAKEFIELD VA
600 AM EST WED NOV 26 2014

Note: "fair" indicates few or no clouds below 12,000 feet with no
significant weather and/or obstructions to visibility. * = Denotes
station may not report precipitation (e.g., rain,snow,etc.),
thunder or fog.

VAZ042-051-052>054-056-261200-
NORTHERN VIRGINIA

CITY           SKY/WX    TMP DP  RH WIND       PRES   REMARKS
WASH NATIONAL  RAIN      47  41  80 NE6       30.10R
DULLES         RAIN      40  38  93 N6        30.10R FOG
FORT BELVOIR   LGT RAIN  45  43  93 VRB1      30.09R FOG
QUANTICO       RAIN      45  41  86 NE6       30.09R FOG
FREDERICKSBRG* RAIN      45  45 100 NE6       30.06R
STAFFORD*      RAIN      43  43 100 NE3       30.11R
WARRENTON      RAIN      44  44 100 NE7       30.07R
CULPEPER*      RAIN      45  43  93 N3        30.08R
MANASSAS*      CLOUDY    43  41  93 N6        30.09R
LEESBURG*      RAIN      41  39  93 N9        30.10R
WINCHESTER     RAIN      39  34  81 CALM      30.09R
FRONT ROYAL*   CLOUDY    36  36 100 CALM      30.08S
LURAY*         RAIN      37  37 100 N8        30.06S
$$

VAZ048-049-060>072-079>083-261200-
CENTRAL AND SOUTH CENTRAL VIRGINIA

CITY           SKY/WX    TMP DP  RH WIND       PRES   REMARKS
RICHMOND       RAIN      45  42  89 NE13      30.02S FOG
CHESTERFIELD*  CLOUDY    45  32  61 NE8       30.02S
PETERSBURG*    LGT RAIN  46  44  95 N14       30.00S
HANOVER        LGT RAIN  44  42  93 VRB5      30.05R FOG
TAPPAHANNOCK*  LGT RAIN  45  41  87 NE10      30.03F
QUINTON*       CLOUDY    44  42  95 NE9       30.00F
CHARLOTTSVILLE RAIN      44  42  93 NE7       30.04R FOG
GORDONSVILLE*  CLOUDY    42  42  98 CALM      30.07R FOG
ORANGE*        RAIN      43  43 100 NE3       30.10R
LOUISA*        RAIN      43  41  93 CALM      30.06R
BUMPASS*       CLOUDY    43  42  95 N3        30.07R
FARMVILLE*     RAIN      46  46 100 NE8G17    30.03S
CREWE*         CLOUDY    44  42  94 NE7       30.01R
FORT PICKETT*  CLOUDY    43  43  98 N10       29.99S
CHASE CITY*    CLOUDY    46  46 100 N10G18    29.94F
CLARKSVILLE*   CLOUDY    45  45 100 NE7G20    29.93F
SOUTH HILL*    CLOUDY    44  42  94 N12G26    30.02R
LAWRENCEVILLE* CLOUDY    44  43  98 N6        29.96R
$$

VAZ088>098-261200-
SOUTHEAST VIRGINIA

CITY           SKY/WX    TMP DP  RH WIND       PRES   REMARKS
NORFOLK        RAIN      47  44  90 NE28G33   29.93F FOG
VIRGINIA BEACH LGT RAIN  50  48  93 NE22G31   29.92F FOG
NORFOLK NAVAL  LGT RAIN  49  44  83 NE30G39   29.95F FOG
WEST POINT*    CLOUDY    47  44  90 NE12G18   30.01F
SALUDA*        CLOUDY    44  42  93 NE9G20    30.00F
NEWPORT NEWS   RAIN      48  43  82 NE16G30   29.96F
LANGLEY AFB    MIX PCPN  45 N/A N/A NE28G35   29.96F
FORT EUSTIS    RAIN      45  45 100 NE10G22   29.94F FOG
WILLIAMSBURG*  CLOUDY    46  45  93 NE7       29.98F
HR EXEC AP*    CLOUDY    46  43  87 NE17G23   29.96F
FRANKLIN*      CLOUDY    45  45 100 NE15G23   29.92F
WAKEFIELD      RAIN      45  42  89 NE8G18    29.95F FOG
$$

VAZ020-022-025-037-045-261200-
WEST CENTRAL AND SOUTHWEST VIRGINIA

CITY           SKY/WX    TMP DP  RH WIND       PRES   REMARKS
STAUNTON*      RAIN      38  36  89 N8        30.05F
WAYNESBORO*    CLOUDY    37  36  96 N7        30.02F
HOT SPRINGS VA HVY SNOW  32  32 100 E3        29.93S VSB 1/4
LYNCHBURG      LGT RAIN  43  41  93 NE14      30.00F
DANVILLE       RAIN      45  41  86 N10       30.00F FOG
SOUTH BOSTON*  CLOUDY    45  43  94 N10       29.95F
MARTINSVILLE   HVY RAIN  43  43 100 NE5       30.03R
ROANOKE        RAIN      39  36  89 N9        30.05R
BLACKSBURG     LGT SNOW  36  36 100 CALM      30.02R
DUBLIN*        LGT SNOW  37  37  99 E3        30.00R
MARION*        RAIN      37  35  94 E5        29.99R
HILLSVILLE*    LGT SNOW  33  33  99 NE3       29.96R
RICHLANDS*     RAIN      40  35  84 CALM      29.95R
WISE*          FLURRIES  36  28  75 W5        29.99R
ABINGDON*      RAIN      41  39  92 CALM      29.97R
$$

MDZ021>025-VAZ099-100-261200-
SOUTHERN MARYLAND AND THE DELMARVA PENINSULA

CITY           SKY/WX    TMP DP  RH WIND       PRES   REMARKS
PATUXENT RIVER LGT RAIN  44  41  89 NE13      30.06R FOG
BAY BRIDGE APT LGT RAIN  43  41  93 CALM      30.10S
LEONARDTOWN    CLOUDY    43  41  93 CALM      30.07F
DOVER          LGT RAIN  44  43  97 NE9       30.06S
GEORGETOWN     RAIN      44  41  89 NE17G26   30.06F FOG
EASTON         LGT RAIN  45  45 100 E7        30.11F FOG
CAMBRIDGE      CLOUDY    45  41  87 NE6       30.05F
SALISBURY      LGT RAIN  46  43  89 NE12      30.03F FOG
OCEAN CITY     LGT RAIN  45  42  89 NE15G23   30.03F FOG
WALLOPS ISLAND LGT RAIN  45  43  93 NE20      30.01F FOG
ACCOMACK*      LGT RAIN  45  41  87 NE22G30   29.98F
$$

NCZ012>017-030>032-261200-
NORTH CENTRAL AND EASTERN NORTH CAROLINA

CITY           SKY/WX    TMP DP  RH WIND       PRES   REMARKS
ROANOKE RAPIDS HVY RAIN  45  45 100 N20G30    29.88F
RALEIGH        RAIN      48  45  89 N10       29.91R VSB 1
ELIZABETH CITY LGT RAIN  56  51  84 NE10G31   29.87F
AHOSKIE*       RAIN      45  43  94 N14       29.89F
EDENTON*       LGT RAIN  54  54  99 E13G26    29.85F
CURRITUCK*     LGT RAIN  52  50  93 NE16G31   29.91F
KILL DEVIL HLS DRIZZLE   62  61  98 E6        29.83F
MANTEO         CLOUDY    62  61  98 NE10      29.85F
CAPE HATTERAS  CLOUDY    66  66 100 SE6       29.83R FOG
TARBORO*       RAIN      50  48  93 NE10G26   29.86S
GOLDSBORO      LGT RAIN  53  53  99 NE12G17   29.77F
WASHINGTON     CLOUDY    56  56  97 NE7       29.81F
GREENVILLE     HVY RAIN  54  54 100 NE8       29.84F
NEW BERN       CLOUDY    64  61  90 SW13      29.79F FOG
WILMINGTON     CLOUDY    68  66  93 SE5       29.75R
$$

VAZ048-261200-
ELSEWHERE

CITY           SKY/WX    TMP DP  RH WIND       PRES   REMARKS
HARRISBURG PA  LGT RAIN  41  31  67 NW7       30.11S
BALTIMORE      RAIN      42  38  85 N3        30.10R
ANNAPOLIS      LGT RAIN  44  39  82 NE3       30.10R
ANDREWS AFB    RAIN      43  41  93 NE6       30.07R
PHILADELPHIA   LGT RAIN  47  34  60 NE9       30.11R
WILDWOOD NJ*   CLOUDY    45  37  76 NE8       30.07R
HENDERSON NC   HVY RAIN  46  44  93 N10G20    29.90F
GREENSBORO     RAIN      43  41  93 NE8G18    29.98R FOG
ROCKY MOUNT    RAIN      50  48  93 N18G30    29.87R FOG
$$

VAZ100-261200-
MARINE

STATION/POSITION TIME  TEMP    WIND        PRES    WAVE   SWELL
                       AIR SEA DIR/SP/G            HT/PER HT/PER
                 (UTC) (F)     (DEG/KT/KT) (MB)    (FT/S) (FT/S)
CAPE MAY NJ      1100   44 50   60/  6/ 13 1018.3F
LEWES DE         1100   45 50   50/ 18/ 20 1018.1F
15NM E FENWICK I 1100   50 54              1016.1F   5/ 5
OCEAN-CITY-INLET 1100   46 51   40/  8/ 17 1016.7F
WACHAPREAGUE VA  1100   45 53   40/ 24/ 32 1014.6F
THOMAS POINT MD  1100   44 48   80/ 10/ 11 1019.9F
GOOSES REEF MD   1100   45      90/ 16/ 17 1018.5S
COVE POINT MD    1100   44      60/ 12/ 14 1017.9R
SOLOMONS ISLAND  1100      50                N/A
BISHOPS HEAD MD  1100   44 48   50/ 14/ 19 1016.5S
PINEY POINT MD   1100           60/  9/ 11   N/A
POTOMAC MD       1100   45      70/ 21/ 25 1016.2S
CAMBRIDGE MD     1100   44 46   40/ 10/ 13 1017.6F
LEWISETTA VA     1100   45 50   70/ 20/ 24 1016.7R
RAPPAHANNOCK LGT 1100           30/ 22/ 24 1015.7F
STINGRAY PT      1100   46      50/ 21/ 27 1016.1F
YORK RVR RNG VA  1100   45      50/ 29/ 33 1014.4F
YORKTOWN VA      1100   45 51   50/ 19/ 21 1014.9F
JAMESTOWN VA     1100   44      70/ 10/ 16   N/A
DOMINION TERM VA 1100   46      40/ 10/ 17 1014.4F
KIPTOPEKE VA     1100      57   40/ 14/ 24   N/A
CHES BAY BRIDGE  1100   47 52   20/ 25/ 29 1013.3R
CAPE HENRY VA    1100   48      30/ 27/ 32 1012.7F
CHESAPEAKE LGHT  1000   50      40/ 30/ 34 1013.5F
WILLOUBY STN VA  1100   46      30/ 26/ 28 1012.9F
S CRANEY ISL VA  1100          360/ 19/ 24 1013.4F
CAPE HENRY BUOY  1100      56                N/A     8/ 6   2/11
1ST LANDING BUOY 1100   48      30/ 25/ 31 1013.6S
CAPE CHARLES BUO 1100      55                N/A     7/ 6   2/15
64NM E OF VA BCH 1100   61 66   60/ 23/ 29 1010.9F   7/ 6   2/15
DUCK PIER NC     1100   59 58   50/ 23/ 26 1010.3F
44100 DUCK FRF   1100      59                N/A     7/ 6   2/11
44056 DUCK FRF   1100      58                N/A     7/ 5
OREGON INLET NC  1100   62 57   50/  5/  9 1010.4F
HATTERAS NC      1100   68 62  100/  4/  6 1010.6F
DIAMOND SHLS NC  1100   74     170/ 19/ 23 1009.3S   5/ 8   5/ 8
CAPE LOOKOUT NC  1000   68     130/ 13/ 14 1008.6F
$$


USA.gov is the U.S. government's official web portal to all federal, state and local government web resources and services.